Погода в Лехтусях

Россия / Санкт-Петербург и Ленинградская область     60°17′11″N   30°33′40″E
темп.,
°C
ветер,
м/с
пор.,
м/с
влажн.,
%
обл.,
%
осадки,
мм/ч
давл.,
гПа
погр.,
м
17 мая, пн
пн1700:00+9зюз23698 0.0 101157
03:00+9юз116716 0.0 101210
06:00+11юв12725 0.0 101350
09:00+17юв35658 0.0 1013487
12:00+20вюв4653100 0.0 10121131
15:00+22вюв4747100 0.0 10111706
18:00+19в3957100 0.0 1009575
21:00+16в31267100 0.0 1007300
18 мая, вт
вт1800:00+16юв31289100 1.6 1006544
03:00+15юв31093100 1.7 1004373
06:00+15всв1198100 0.0 100452
09:00+18вюв2388100 0.0 1004482
12:00+19ююв2686100 0.5 1005566
15:00+21ююз2577100 0.6 1004588
18:00+19юз138698 4.9 100473
21:00+16ссв2499100 7.6 1004114
19 мая, ср
ср1900:00+14в249997 1.1 1005140
03:00+14в2699100 1.3 1004154
06:00+15вюв3119493 0.0 1002332
09:00+19юв5128290 0.3 1002850
12:00+22ююв6136587 0.7 10021785
15:00+22ююв6116028 1.3 10021737
18:00+20ю512705 0.8 10021314
21:00+16ю3889100 1.9 1003288
20 мая, чт
чт2000:00+12зюз41092100 0.5 1003448
03:00+10зюз3992100 0.5 1006448
06:00+9зюз4109188 0.0 1006492
09:00+11зюз4682100 0.0 1008669
12:00+14зюз3565100 0.0 1009877
15:00+15сз3459100 0.0 10091265
18:00+15с356161 0.0 10081135
21:00+11с2478100 0.1 1007195
21 мая, пт
пт2100:00+9с21094100 1.7 1006567
03:00+10сз3993100 2.7 1005730
06:00+9сз51293100 0.5 1003873
09:00+10сз41093100 1.4 1004789
12:00+11з3584100 0.3 1006753
15:00+8зюз4118885 0.9 1008405
18:00+13зюз511560 0.0 10081207
21:00+9зюз412756 0.0 1010466